Weather History for Nashua, NH

Change the Weather History Date:

Tuesday, October 28, 2014

  Actual Average Record
Temperature  
Mean Temperature 50 °F -  
Max Temperature 63 °F 59 °F 78 °F (1966)
Min Temperature 36 °F 31 °F 14 °F (1974)
Degree Days  
Heating Degree Days 16    
Moisture  
Dew Point 44 °F    
Average Humidity 83    
Maximum Humidity 97    
Minimum Humidity 54    
Precipitation  
Precipitation 0.00 in - - ()
Sea Level Pressure  
Sea Level Pressure 30.67 in    
Wind  
Wind Speed 1 mph (SE)    
Max Wind Speed 7 mph    
Max Gust Speed -    
Visibility 10 miles    
Events      
Averages and records for this station are not official NWS values.
T = Trace of Precipitation, MM = Missing Value Source: NWS Daily Summary

Daily Weather History Graph

Daily Weather History Graph

Search for Another Location

Airport:

Trip Planner

Search our weather history database for the weather conditions in past years. The results will help you decide how hot, cold, wet, or windy it might be!

Date:

Astronomy

Oct. 28, 2014 Rise Set
Actual Time 7:15 AM EDT 5:43 PM EDT
Civil Twilight 6:45 AM EDT 6:13 PM EDT
Nautical Twilight 6:12 AM EDT 6:46 PM EDT
Astronomical Twilight 5:39 AM EDT 7:19 PM EDT
Moon 11:44 AM EDT (10/28) 9:44 PM EDT (10/28)
Length of Visible Light 11h 27m
Length of Day
10h 28m
Waxing Crescent, 24% of the Moon is Illuminated
Oct 28
Waxing Crescent
Oct 30
First Quarter
Nov 6
Full
Nov 14
Last Quarter
Nov 22
New

Hourly Weather History & Observations

Time (EDT) Temp. Dew Point Humidity Pressure Visibility Wind Dir Wind Speed Gust Speed Precip Events Conditions
12:51 AM 37.9 °F 36.0 °F 93% 30.79 in 10.0 mi Calm Calm - N/A   Clear
1:51 AM 38.8 °F 37.9 °F 97% 30.80 in 10.0 mi Calm Calm - N/A   Partly Cloudy
2:51 AM 36.9 °F 36.0 °F 97% 30.81 in 10.0 mi Calm Calm - N/A   Partly Cloudy
3:51 AM 36.9 °F 34.9 °F 93% 30.80 in 10.0 mi Calm Calm - N/A   Partly Cloudy
4:51 AM 36.0 °F 34.9 °F 96% 30.81 in 10.0 mi Calm Calm - N/A   Clear
5:51 AM 36.9 °F 36.0 °F 97% 30.81 in 10.0 mi Calm Calm - N/A   Scattered Clouds
6:51 AM 36.9 °F 36.0 °F 97% 30.82 in 10.0 mi Calm Calm - N/A   Clear
7:51 AM 38.8 °F 37.9 °F 97% 30.83 in 10.0 mi Calm Calm - N/A   Scattered Clouds
8:51 AM 43.0 °F 39.9 °F 89% 30.83 in 10.0 mi Calm Calm - N/A   Partly Cloudy
9:51 AM 47.8 °F 41.0 °F 77% 30.83 in 10.0 mi Calm Calm - N/A   Clear
10:51 AM 52.9 °F 41.0 °F 64% 30.81 in 10.0 mi Calm Calm - N/A   Clear
11:51 AM 57.9 °F 41.9 °F 55% 30.78 in 10.0 mi SE 5.8 mph - N/A   Clear
12:51 PM 61.0 °F 45.0 °F 56% 30.76 in 10.0 mi Calm Calm - N/A   Clear
1:51 PM 61.9 °F 45.9 °F 56% 30.74 in 10.0 mi ESE 3.5 mph - N/A   Mostly Cloudy
2:51 PM 63.0 °F 46.9 °F 56% 30.72 in 10.0 mi Variable 4.6 mph - N/A   Clear
3:51 PM 63.9 °F 46.9 °F 54% 30.71 in 10.0 mi SSE 6.9 mph - N/A   Clear
4:51 PM 63.0 °F 47.8 °F 58% 30.71 in 10.0 mi Calm Calm - N/A   Clear
5:51 PM 56.8 °F 50.9 °F 80% 30.71 in 10.0 mi Calm Calm - N/A   Clear
6:51 PM 55.9 °F 50.0 °F 80% 30.71 in 10.0 mi Calm Calm - N/A   Clear
7:51 PM 54.0 °F 50.0 °F 86% 30.71 in 10.0 mi Calm Calm - N/A   Clear
8:51 PM 52.0 °F 50.0 °F 93% 30.71 in 10.0 mi NW 4.6 mph - N/A   Clear
9:51 PM 50.0 °F 48.9 °F 96% 30.71 in 10.0 mi Calm Calm - N/A   Clear
10:03 PM 51.8 °F 50.0 °F 94% 29.97 in 10.0 mi Calm Calm - N/A   Scattered Clouds
10:13 PM 51.8 °F 48.2 °F 88% 29.97 in 10.0 mi Calm Calm - N/A   Mostly Cloudy
10:51 PM 50.9 °F 50.0 °F 97% 30.70 in 10.0 mi Calm Calm - N/A   Mostly Cloudy
11:19 PM 51.8 °F 48.2 °F 88% 29.95 in 10.0 mi Calm Calm - N/A   Mostly Cloudy
11:51 PM 50.9 °F 50.0 °F 97% 30.68 in 8.0 mi Calm Calm - N/A   Scattered Clouds